sat.trackr.live / text

‹ back to catalog

STARLINK-2543

NORAD 48278 · 2021-036C

PAYLOAD ACTIVE UNKNOWN

§ Identity

Operator
Country
US
Launch date
2021-04-29
Launch site
AFETR
Launch vehicle
Mass (kg)
RCS (m²)

Purposes: comms

External: N2YO · Heavens-Above · Gunter

§ Orbital elements

Epoch: 2026-09-19T12:03:20.296800Z

Period
94.01 min
Inclination
53.1589°
Eccentricity
0.0001310
Mean motion
15.31698507 rev/d
Perigee alt
469.8 km
Apogee alt
471.6 km
Semi-major
6,848.9 km
B*
5.4099e-6
RAAN
202.4237°
Arg perigee
85.1978°
Mean anomaly
274.9173°
Rev number
29,881

§ Raw data

STARLINK-25431 48278U 21036C   26262.50231825 -.00000197  00000+0  54099-5 0  99942 48278  53.1589 202.4237 0001310  85.1978 274.9173 15.31698507298811

JSON: /api/v1/satellites/48278 · /tle

For live sub-satellite position, see the globe view (requires WebGL).

§ Visibility from observer

Set your observer location to see the next 7 days of passes ≥ 10°. The values pass through the URL so the page stays shareable.

No JS? Fill the form by hand. The geolocation button needs JavaScript.